Alice, TX

1:34 AM CDT on April 27, 2017 (GMT -0500)
Alice International

Weather History for KALI - February, 2013

Change the Weather History Date:

Thursday, February 7, 2013

  Actual Average Record
Temperature  
Mean Temperature 66 °F -  
Max Temperature 73 °F 67 °F 91 °F (2017)
Min Temperature 59 °F 47 °F 30 °F (2014)
Cooling Degree Days 1    
Growing Degree Days 16 (Base 50)    
Moisture  
Dew Point 62 °F    
Average Humidity 91    
Maximum Humidity 100    
Minimum Humidity 71    
Precipitation  
Precipitation 0.01 in - - ()
Sea Level Pressure  
Sea Level Pressure 29.94 in    
Wind  
Wind Speed 3 mph (NNE)    
Max Wind Speed 6 mph    
Max Gust Speed -    
Visibility 5 miles    
Events Fog    
Averages and records for this station are not official NWS values.
T = Trace of Precipitation, MM = Missing Value Source: NWS Daily Summary

Daily Weather History Graph

Daily Weather History Graph

Search for Another Location

Airport or City:

Trip Planner

Search our weather history database for the weather conditions in past years. The results will help you decide how hot, cold, wet, or windy it might be!

Date:

Astronomy

Feb. 07, 2013 Rise Set
Actual Time 7:15 AM CST 6:17 PM CST
Civil Twilight 6:50 AM CST 6:42 PM CST
Nautical Twilight 6:23 AM CST 7:09 PM CST
Astronomical Twilight 5:55 AM CST 7:37 PM CST
Moon 4:48 AM CST (2/7) 3:50 PM CST (2/7)
Length of Visible Light 11h 51m
Length of Day
11h 02m
Waning Crescent, 9% of the Moon is Illuminated
Feb 7
Waning Crescent
Feb 10
New
Feb 17
First Quarter
Feb 25
Full
Mar 4
Last Quarter

Hourly Weather History & Observations

Time (CST) Temp. Dew Point Humidity Pressure Visibility Wind Dir Wind Speed Gust Speed Precip Events Conditions
12:53 AM 61.0 °F 59.0 °F 93% 29.91 in 10.0 mi North - - N/A   Overcast
1:17 AM 62.6 °F 59.0 °F 88% 29.91 in 10.0 mi North - - N/A   Overcast
1:53 AM 62.1 °F 59.0 °F 90% 29.91 in 10.0 mi North - - N/A   Overcast
2:53 AM 62.1 °F 60.1 °F 93% 29.90 in 10.0 mi North - - N/A   Overcast
3:53 AM 62.1 °F 59.0 °F 90% 29.89 in 5.0 mi North - - N/A   Overcast
4:53 AM 61.0 °F 59.0 °F 93% 29.88 in 3.0 mi North - - N/A   Overcast
5:15 AM 60.8 °F 60.8 °F 100% 29.88 in 2.5 mi North - - N/A   Overcast
5:46 AM 60.8 °F 60.8 °F 100% 29.89 in 2.5 mi North - - N/A   Overcast
5:53 AM 61.0 °F 60.1 °F 97% 29.89 in 2.5 mi North - - N/A   Overcast
6:38 AM 60.8 °F 60.8 °F 100% 29.90 in 3.0 mi North - - N/A   Overcast
6:53 AM 61.0 °F 60.1 °F 97% 29.91 in 3.0 mi North - - N/A   Overcast
7:53 AM 62.1 °F 60.1 °F 93% 29.92 in 2.5 mi North - - N/A   Overcast
8:20 AM 62.6 °F 60.8 °F 94% 29.94 in 1.5 mi North - - N/A   Overcast
8:38 AM 62.6 °F 60.8 °F 94% 29.94 in 0.5 mi North 4.6 mph - N/A Fog Fog
8:53 AM 62.1 °F 61.0 °F 96% 29.94 in 0.5 mi North 4.6 mph - N/A Fog Fog
9:38 AM 62.6 °F 62.6 °F 100% 29.96 in 0.8 mi NNE 4.6 mph - N/A   Mist
9:53 AM 63.0 °F 62.1 °F 97% 29.96 in 0.8 mi North 4.6 mph - N/A   Overcast
10:15 AM 64.4 °F 62.6 °F 94% 29.97 in 1.0 mi North 5.8 mph - N/A   Overcast
10:53 AM 64.0 °F 63.0 °F 96% 29.97 in 1.5 mi North 4.6 mph - N/A   Overcast
11:07 AM 64.4 °F 62.6 °F 94% 29.97 in 2.0 mi North 4.6 mph - N/A   Overcast
11:26 AM 64.4 °F 64.4 °F 100% 29.97 in 4.0 mi North 3.5 mph - N/A   Overcast
11:41 AM 66.2 °F 64.4 °F 94% 29.96 in 8.0 mi North 4.6 mph - N/A   Overcast
11:53 AM 66.0 °F 64.0 °F 93% 29.96 in 9.0 mi North 5.8 mph - N/A   Overcast
12:33 PM 68.0 °F 64.4 °F 88% 29.97 in 10.0 mi NNW 4.6 mph - N/A   Overcast
12:53 PM 68.0 °F 64.0 °F 87% 29.95 in 10.0 mi NNW 4.6 mph - N/A   Overcast
1:39 PM 69.8 °F 64.4 °F 83% 29.93 in 10.0 mi NNW 5.8 mph - N/A   Overcast
1:53 PM 70.0 °F 64.0 °F 81% 29.92 in 10.0 mi NNW 3.5 mph - N/A   Overcast
2:51 PM 71.6 °F 64.4 °F 78% 29.91 in 10.0 mi Calm Calm - N/A   Overcast
2:53 PM 72.0 °F 64.9 °F 78% 29.91 in 10.0 mi Calm Calm - N/A   Overcast
3:32 PM 73.4 °F 64.4 °F 73% 29.91 in 10.0 mi Calm Calm - N/A   Overcast
3:53 PM 73.9 °F 64.9 °F 73% 29.90 in 10.0 mi Calm Calm - N/A   Overcast
4:53 PM 73.9 °F 64.0 °F 71% 29.90 in 10.0 mi Calm Calm - N/A   Overcast
5:53 PM 73.0 °F 64.9 °F 76% 29.92 in 10.0 mi NNE 3.5 mph - N/A   Mostly Cloudy
6:23 PM 71.6 °F 64.4 °F 78% 29.92 in 10.0 mi East 3.5 mph - N/A   Mostly Cloudy
6:30 PM 71.6 °F 64.4 °F 78% 29.93 in 10.0 mi East 3.5 mph - N/A   Scattered Clouds
6:53 PM 70.0 °F 64.9 °F 84% 29.93 in 10.0 mi ENE 3.5 mph - N/A   Clear
7:53 PM 66.9 °F 64.0 °F 90% 29.94 in 10.0 mi Calm Calm - N/A   Clear
8:50 PM 64.4 °F 62.6 °F 94% 29.96 in 1.8 mi Calm Calm - N/A   Clear
8:53 PM 64.0 °F 62.1 °F 93% 29.96 in 1.2 mi Calm Calm - N/A   Clear
9:00 PM 62.6 °F 62.6 °F 100% 29.96 in 0.5 mi Calm Calm - N/A Fog Fog
9:14 PM 62.6 °F 60.8 °F 94% 29.96 in 0.2 mi Calm Calm - N/A Fog Fog
9:25 PM 62.6 °F 60.8 °F 94% 29.97 in 0.5 mi Calm Calm - 0.01 in Fog Fog
9:41 PM 62.6 °F 60.8 °F 94% 29.97 in 0.8 mi Calm Calm - 0.01 in   Mist
9:53 PM 62.1 °F 61.0 °F 96% 29.97 in 0.5 mi SSE 3.5 mph - 0.01 in Fog Fog
9:58 PM 62.6 °F 60.8 °F 94% 29.98 in 1.0 mi Calm Calm - N/A   Mist
10:01 PM 62.6 °F 60.8 °F 94% 29.98 in 2.0 mi Calm Calm - N/A   Partly Cloudy
10:09 PM 62.6 °F 60.8 °F 94% 29.98 in 4.0 mi Calm Calm - N/A   Partly Cloudy
10:18 PM 62.6 °F 62.6 °F 100% 29.98 in 1.8 mi Calm Calm - N/A   Partly Cloudy
10:40 PM 62.6 °F 60.8 °F 94% 29.98 in 0.8 mi Calm Calm - N/A   Mist
10:48 PM 60.8 °F 60.8 °F 100% 29.99 in 0.5 mi South 3.5 mph - N/A Fog Fog
10:49 PM 61.0 °F 60.1 °F 97% 29.98 in 0.5 mi South 3.5 mph - N/A Fog Fog
10:57 PM 60.8 °F 60.8 °F 100% 29.99 in 0.2 mi South 3.5 mph - N/A Fog Fog
11:06 PM 59.0 °F 57.2 °F 94% 29.99 in 0.2 mi SSE 4.6 mph - N/A Fog Fog
11:53 PM 63.0 °F 62.1 °F 97% 29.99 in 0.2 mi Calm Calm - N/A Fog Fog